Location: West Cummington
(42.4920°N, 72.9680°W)
Time: 18:24:39
(UTC-04:00)

Daily predictions for brighter satellites

Satellite Brightness Start Highest point End
(mag) Time Altitude Azimuth Time Altitude Azimuth Time Altitude Azimuth
BREEZE-M DEB (TANK) 4.4 20:40:59 10° WNW 20:44:48 42° SSW 20:56:54 10° SE
ATLAS 3B R/B 4.4 20:45:12 10° SE 20:48:52 14° ESE 20:52:31 10° ENE
APEX 3.9 20:47:02 10° NNW 20:50:55 55° ENE 20:55:58 10° SE
Cosmos 2228 3.4 20:48:33 10° N 20:52:51 49° ENE 20:57:07 10° SSE
Cosmos 2098 Rocket 4.3 20:51:23 10° NNW 20:54:27 34° W 20:58:08 10° SSW
Cosmos 1743 3.1 20:50:39 10° NNW 20:54:29 66° W 20:58:15 10° S
Lacrosse 5 rocket 2.2 20:51:43 10° WSW 20:55:29 52° NW 20:59:29 10° NE
Cosmos 1025 Rocket 3.8 20:51:34 10° SSW 20:55:53 59° W 21:00:14 10° N
Meteor 1-23 Rocket 4.2 20:50:54 10° S 20:56:30 73° E 21:02:14 10° NNE
Cosmos 2251 Rocket 4.0 20:52:35 10° SSW 20:57:52 70° WNW 21:03:15 10° NNE
Cosmos 1892 Rocket 3.9 20:59:37 10° SSW 21:04:03 71° W 21:08:32 10° N
ERS-1 Rocket 3.1 20:59:10 10° SSE 21:04:11 83° WSW 21:09:15 10° NNW
Cosmos 1603 4.1 21:00:01 10° S 21:05:12 40° ESE 21:10:24 10° NE
USA 234 3.7 20:59:19 10° ESE 21:05:42 56° NNE 21:12:06 10° NW
Envisat 3.2 21:03:08 10° SSE 21:08:05 57° ENE 21:13:04 10° N
Meteor 2-9 Rocket 4.3 21:03:35 10° N 21:09:17 83° E 21:15:05 10° S
SJ-11-01 4.4 21:05:39 10° S 21:10:18 79° WSW 21:15:01 10° NNW
USA 186 4.1 21:11:51 10° SW 21:13:57 18° W 21:15:59 10° NW
Abrixas rocket 2.7 21:12:21 10° WNW 21:15:42 53° SSW 21:18:26 14° SE
Meteor 2-4 Rocket 4.1 21:10:25 10° SSW 21:16:16 77° W 21:22:14 10° N
Okean 2 3.8 21:14:20 10° SSW 21:18:30 68° W 21:22:41 10° N
BREEZE M DEB (TANK) 1.4 21:17:22 10° WNW 21:20:18 71° N 21:21:56 13° E
Timation 1 Rocket 4.4 21:18:38 10° NNW 21:24:41 87° ENE 21:30:11 13° SSE
Tsikada Rocket 4.1 21:18:34 10° S 21:24:53 63° E 21:31:11 10° NNE
Cosmos 1943 4.2 21:25:39 11° SSE 21:29:57 27° ESE 21:34:38 10° NE
YAOGAN 6 3.4 21:27:50 17° SE 21:30:18 37° ENE 21:33:48 10° N
PSLV R/B 3.9 21:30:30 10° SW 21:33:49 38° SSE 21:36:28 15° E
ISS -2.4 21:31:08 10° SSW 21:33:55 26° SE 21:36:43 10° ENE
Cosmos 1943 Rocket 4.2 21:34:20 10° N 21:37:45 16° NE 21:41:10 10° E
Cosmos 1461 3.1 21:34:57 10° NW 21:39:14 68° WSW 21:42:09 18° SSE
CZ-2C R/B 3.6 21:39:05 10° WSW 21:39:50 11° W 21:40:34 10° WNW
MetOp-A 4.1 21:35:19 14° SSE 21:39:59 76° ENE 21:45:21 10° N
SPOT 5 2.7 21:36:20 12° S 21:40:24 80° WSW 21:44:46 10° NNW
Cosmos 1992 Rocket 4.4 21:39:33 10° N 21:44:40 50° ENE 21:48:02 20° SE
Cosmos 1602 Rocket 4.0 21:42:40 10° SSW 21:47:07 67° W 21:51:36 10° N
CZ-4 SHROUD 4.2 21:46:44 13° S 21:49:18 44° W 21:52:21 10° NNW
H-2A R/B 3.3 21:48:11 17° ESE 21:50:53 26° ENE 21:55:03 10° N
SL-08 RB Rocket 4.3 21:49:11 22° SE 21:51:47 43° ENE 21:56:05 10° N
Cosmos 1825 Rocket 4.0 21:49:40 21° SSE 21:52:15 44° E 21:56:29 10° NNE
Aureole 2 Rocket 4.5 21:51:08 10° SW 21:54:40 32° WNW 21:57:56 10° N
Cosmos 1812 Rocket 3.7 21:52:44 10° NNW 21:57:07 72° W 22:00:27 17° S
SPOT 1/Viking Rocket 3.5 21:55:42 20° SSE 21:59:19 81° ENE 22:04:30 10° NNW
Geosat 4.4 21:56:28 10° NE 22:01:14 41° ESE 22:04:14 20° S
Terra 2.9 22:00:40 21° ESE 22:02:51 30° ENE 22:07:00 10° N
Cosmos 1190 Rocket 4.4 22:00:19 21° SSE 22:03:30 44° ESE 22:08:32 10° NNE
Cosmos 1634 Rocket 4.0 21:58:47 10° N 22:04:57 67° E 22:08:55 23° SSE
USA 245 4.3 22:05:43 19° S 22:10:13 82° WSW 22:15:30 10° NNW
H-2A R/B 4.5 22:07:34 10° SW 22:10:31 18° W 22:13:32 10° NW
SeaSat 1 3.3 22:07:21 17° S 22:10:52 42° WSW 22:15:34 10° NW
Atlas Centaur 2 3.7 22:04:46 10° SW 22:11:39 33° S 22:15:35 23° SE
Cosmos 2369 Rocket 2.3 22:07:50 10° NNW 22:13:31 66° ENE 22:16:29 28° SE
ARGOS 3.1 22:10:34 24° SSE 22:13:56 86° ENE 22:19:23 10° NNW
CZ-4C R/B 3.5 22:12:56 33° SE 22:14:44 65° ENE 22:18:48 10° N
DEBRIS 4.0 22:12:15 10° WNW 22:15:04 19° SW 22:15:34 18° SW
CZ-4B R/B 3.8 22:12:07 10° N 22:17:09 68° WNW 22:22:17 10° SSW
NOAA 11 4.2 22:22:44 27° S 22:25:49 82° WSW 22:31:17 10° NNW
COSMOS 2455 3.1 22:22:10 10° SW 22:28:09 70° WNW 22:34:10 10° NNE
Cosmos 2279 Rocket 4.1 22:23:21 10° N 22:29:33 61° E 22:32:31 31° SSE
Cosmos 1953 3.4 22:30:23 10° NNE 22:33:55 29° ENE 22:34:19 29° E
Lacrosse 5 rocket 4.5 22:33:13 10° NW 22:35:37 15° NNW 22:38:06 10° NNE
Cosmos 2263 4.2 22:31:34 10° NNW 22:37:12 74° ENE 22:39:31 37° SE
Meteor 1-22 Rocket 4.2 22:31:39 10° N 22:37:14 86° W 22:40:02 32° S
Cosmos 1953 Rocket 3.6 22:35:33 32° SSW 22:37:34 81° W 22:42:01 10° N
ATLAS 3B R/B 2.9 22:30:48 10° SSW 22:38:28 72° ESE 22:45:59 10° NE
COSMOS 2406 4.3 22:39:06 25° ESE 22:39:19 25° ESE 22:43:55 10° NE
IGS 5A 3.4 22:43:55 52° SE 22:44:45 69° ENE 22:48:54 10° N
USA 234 3.7 22:45:49 30° S 22:48:45 48° SW 22:55:05 10° WNW
Cosmos 407 Rocket 3.5 22:49:26 27° SSW 22:52:21 86° WNW 22:57:38 10° NNE
SL-27 R/B 4.0 22:55:23 24° ENE 22:55:23 24° ENE 22:57:07 10° NE
Cosmos 1346 Rocket 3.6 22:56:00 30° SW 22:57:29 46° WNW 23:01:17 10° N
Cosmos-2242 3.0 22:53:17 10° N 22:57:42 72° E 22:58:21 60° SE
SL-24 R/B 4.5 22:53:55 10° N 22:58:49 80° W 23:00:48 39° SSW
SL-23 DEB 4.5 22:53:47 10° SW 23:01:53 20° ENE 23:02:57 10° ENE
Lacrosse 4 Rocket 1.4 22:59:11 45° SW 23:00:20 77° WNW 23:04:27 10° NNE
ISS -2.0 23:07:08 10° W 23:10:15 41° NNW 23:13:23 10° NE
BREEZE-M DEB (TANK) 4.1 23:08:19 10° WNW 23:14:11 - ENE 23:09:51 22° NW
Cosmos 1954 Rocket 3.9 23:09:47 47° S 23:11:21 82° ESE 23:16:41 10° NNE
USA 238 DEB 3.9 23:10:59 40° SSE 23:13:09 53° ESE 23:19:59 10° NE
USA 238 3.9 23:11:09 40° SSE 23:13:15 52° ESE 23:20:05 10° NE
Cosmos 1943 4.2 23:08:18 10° SW 23:13:43 46° WNW 23:19:12 10° NNE
Cosmos 1842 3.4 23:13:33 61° WSW 23:13:54 65° W 23:17:50 10° N
CARTOSAT-1 4.2 23:14:29 41° SW 23:15:17 46° W 23:19:28 10° NNW
CZ-4B R/B 4.0 23:17:06 14° ENE 23:17:06 14° ENE 23:19:00 10° NNE
Cosmos 1544 4.1 23:14:25 10° N 23:17:29 37° ENE 23:17:29 37° ENE
Cosmos 1758 3.2 23:14:48 10° N 23:18:56 84° W 23:19:02 82° SW
Cosmos 1943 Rocket 2.1 23:16:41 10° NNW 23:22:16 88° WSW 23:23:31 56° SSE
Spot 4 4.2 23:22:16 46° SW 23:23:12 54° W 23:27:54 10° NNW
ALOS 2 4.2 23:25:26 23° ENE 23:25:53 23° ENE 23:29:22 10° NNE
SL-8 R/B 4.5 23:23:08 10° WNW 23:27:51 50° NNE 23:30:33 24° E
Cosmos 1741 Rocket 4.1 23:27:51 55° ESE 23:28:10 56° ESE 23:33:23 10° NNE
Meteor 2-5 Rocket 4.2 23:28:42 43° ESE 23:29:29 45° E 23:34:59 10° NNE
H-2A R/B 2.9 23:28:49 31° SW 23:30:07 37° W 23:34:47 10° NNW
Cosmos 1092 Rocket 4.0 23:33:02 51° SSE 23:34:41 73° E 23:40:59 10° NNE
Cosmos 1656 Rocket 3.9 23:33:49 10° NNW 23:39:29 64° ENE 23:40:41 51° ESE
Terra 3.1 23:39:33 27° WSW 23:40:32 30° W 23:44:43 10° NW
Cosmos 1842 Rocket 3.5 23:37:11 10° NNW 23:41:33 75° W 23:41:33 75° W
Cosmos 1570 Rocket 3.9 23:37:28 10° NNW 23:42:51 83° WSW 23:43:34 67° S
Cosmos 1733 4.1 23:42:18 10° N 23:45:24 43° NE 23:45:24 43° NE
Cosmos 1850 Rocket 3.8 23:46:11 70° S 23:46:47 85° ESE 23:52:02 10° NNE
Nadezhda 4 Rocket 4.2 23:45:01 41° SSW 23:47:16 68° W 23:53:36 10° N
CZ-4C R/B 3.3 23:54:52 29° E 23:54:52 29° E 23:58:55 10° NE
